{"data":{"norad_id":64677,"intl_designator":"2025-139P","name":"STARLINK-34605","alt_names":[],"object_type":"PAYLOAD","status":"ACTIVE","operator":null,"country":"US","launch_date":"2025-06-28","launch_site_code":"AFETR","launch_vehicle":null,"mission":null,"orbit_class":"UNKNOWN","rcs_meters":null,"size_class":null,"mass_kg":null,"dimensions":null,"purposes":["comms"],"wikipedia_slug":null,"has_3d_model":false,"image_url":null,"decayed_at":null,"tle_current":{"epoch":"2026-09-20T13:39:39.778560Z","epoch_age_seconds":125410,"freshness":"FRESH","line1":"1 64677U 25139P   26263.56921040  .00011913  00000+0  36317-3 0  9993","line2":"2 64677  53.1577 289.6045 0001214  87.7459 272.3682 15.34399333 70293","mean_motion":15.34399333,"eccentricity":0.0001214,"inclination_deg":53.1577,"raan_deg":289.6045,"arg_perigee_deg":87.7459,"mean_anomaly_deg":272.3682,"bstar":0.00036317,"rev_number":7029,"period_min":93.847798876748,"perigee_km":461.87474442655,"apogee_km":463.53570091822,"semimajor_km":6840.8422226724,"source":"CELESTRAK","updated_at":"2026-09-21T09:00:35.399626Z"}}}